FDX1332 CYWG-CYYZ

Flight info

Callsign FDX1332
Flight time 1h 51m
Altitude 35000
Route RORMA DCT AXOMA DCT SIDPO DCT DEGVA DCT AGLIN DCT OTNIK BOXUM7
Aircraft MD11/H-SDE1E2E3FGHIJ2J3J4J5M1RWXY/LB1D1

Departure

Time 2026-05-07 23:29
Airport Winnipeg / James Armstrong Richardson International Airport (CYWG)

Arrival

Time 2026-05-08 01:20
Airport Toronto Pearson International Airport (CYYZ)
Time Latitude Longitude Altitude Speed Heading
2026-05-07 23:01 49.89699 -97.22142 791 ft 0 kts
2026-05-07 23:20 49.89689 -97.22143 806 ft 4 kts 356°
2026-05-07 23:20 49.89666 -97.22137 791 ft 4 kts 322°
2026-05-07 23:20 49.89652 -97.22110 790 ft 4 kts 285°
2026-05-07 23:20 49.89648 -97.22070 790 ft 4 kts 273°
2026-05-07 23:21 49.89648 -97.22062 790 ft 0 kts 273°
2026-05-07 23:24 49.89648 -97.22069 790 ft 3 kts 273°
2026-05-07 23:25 49.89651 -97.22162 791 ft 14 kts 273°
2026-05-07 23:25 49.89657 -97.22327 794 ft 14 kts 273°
2026-05-07 23:25 49.89668 -97.22463 795 ft 11 kts 284°
2026-05-07 23:25 49.89655 -97.22565 794 ft 11 kts 238°
2026-05-07 23:26 49.89588 -97.22688 794 ft 18 kts 228°
2026-05-07 23:26 49.89493 -97.22859 790 ft 17 kts 241°
2026-05-07 23:26 49.89491 -97.23055 790 ft 20 kts 277°
2026-05-07 23:26 49.89510 -97.23292 787 ft 24 kts 277°
2026-05-07 23:27 49.89550 -97.23814 793 ft 21 kts 277°
2026-05-07 23:27 49.89567 -97.24030 795 ft 20 kts 277°
2026-05-07 23:27 49.89602 -97.24147 796 ft 9 kts 334°
2026-05-07 23:28 49.89690 -97.24149 796 ft 23 kts
2026-05-07 23:28 49.90080 -97.24060 789 ft 95 kts
2026-05-07 23:28 49.90950 -97.23873 799 ft 156 kts
2026-05-07 23:28 49.92105 -97.23586 1251 ft 172 kts
2026-05-07 23:29 49.93317 -97.23310 2157 ft 174 kts
2026-05-07 23:29 49.94519 -97.23030 3127 ft 174 kts
2026-05-07 23:29 49.95717 -97.22747 3987 ft 179 kts
2026-05-07 23:29 49.97059 -97.22440 4324 ft 213 kts
2026-05-07 23:30 49.98640 -97.22078 4493 ft 245 kts
2026-05-07 23:30 50.00363 -97.21669 5228 ft 251 kts
2026-05-07 23:30 50.02095 -97.21246 6331 ft 252 kts
2026-05-07 23:30 50.03823 -97.20826 7328 ft 254 kts
2026-05-07 23:31 50.05562 -97.20201 8216 ft 264 kts 19°
2026-05-07 23:31 50.07058 -97.18460 9146 ft 279 kts 45°
2026-05-07 23:31 50.07745 -97.16730 9741 ft 289 kts 63°
2026-05-07 23:31 50.08131 -97.12456 10364 ft 326 kts 94°
2026-05-07 23:32 50.07430 -97.08911 10527 ft 360 kts 115°
2026-05-07 23:32 50.06192 -97.05373 10808 ft 382 kts 118°
2026-05-07 23:32 50.04857 -97.01750 11628 ft 387 kts 118°
2026-05-07 23:32 50.03500 -96.98094 12476 ft 392 kts 118°
2026-05-07 23:33 50.02128 -96.94391 13274 ft 398 kts 118°
2026-05-07 23:33 50.01213 -96.91912 13803 ft 401 kts 118°
2026-05-07 23:33 49.99815 -96.88116 14471 ft 406 kts 118°
2026-05-07 23:33 49.98406 -96.84282 15120 ft 411 kts 117°
2026-05-07 23:34 49.96977 -96.80390 15766 ft 417 kts 117°
2026-05-07 23:34 49.95532 -96.76457 16410 ft 422 kts 117°
2026-05-07 23:34 49.94257 -96.72346 16975 ft 422 kts 105°
2026-05-07 23:34 49.93668 -96.67895 17601 ft 420 kts 91°
2026-05-07 23:35 49.93535 -96.63355 18202 ft 422 kts 85°
2026-05-07 23:35 49.93568 -96.58846 18722 ft 425 kts 84°
2026-05-07 23:35 49.93631 -96.54233 19260 ft 428 kts 84°
2026-05-07 23:35 49.93673 -96.49589 19781 ft 432 kts 84°
2026-05-07 23:36 49.93682 -96.44911 20293 ft 436 kts 85°
2026-05-07 23:36 49.93664 -96.40187 20818 ft 439 kts 85°
2026-05-07 23:36 49.93629 -96.35427 21377 ft 442 kts 86°
2026-05-07 23:36 49.93585 -96.30639 21918 ft 445 kts 87°
2026-05-07 23:37 49.93538 -96.25798 22468 ft 449 kts 87°
2026-05-07 23:37 49.93491 -96.20938 22999 ft 452 kts 87°
2026-05-07 23:37 49.93444 -96.16038 23535 ft 456 kts 87°
2026-05-07 23:37 49.93395 -96.11096 24000 ft 459 kts 87°
2026-05-07 23:38 49.93345 -96.06123 24481 ft 463 kts 86°
2026-05-07 23:38 49.93292 -96.01111 24965 ft 466 kts 86°
2026-05-07 23:38 49.93237 -95.96058 25453 ft 469 kts 86°
2026-05-07 23:38 49.93180 -95.91037 25956 ft 473 kts 86°
2026-05-07 23:39 49.93121 -95.85915 26428 ft 476 kts 87°
2026-05-07 23:39 49.93058 -95.80760 26911 ft 480 kts 86°
2026-05-07 23:39 49.92991 -95.75561 27384 ft 483 kts 86°
2026-05-07 23:39 49.92922 -95.70333 27860 ft 486 kts 86°
2026-05-07 23:40 49.92850 -95.65067 28305 ft 490 kts 86°
2026-05-07 23:40 49.92775 -95.59763 28757 ft 493 kts 86°
2026-05-07 23:40 49.92698 -95.54426 29210 ft 496 kts 86°
2026-05-07 23:40 49.92618 -95.49063 29653 ft 499 kts 86°
2026-05-07 23:41 49.92530 -95.43655 30093 ft 502 kts 87°
2026-05-07 23:41 49.92424 -95.38229 30497 ft 503 kts 87°
2026-05-07 23:41 49.92314 -95.32799 30938 ft 503 kts 87°
2026-05-07 23:41 49.92209 -95.27449 31368 ft 502 kts 87°
2026-05-07 23:42 49.92106 -95.22041 31799 ft 502 kts 87°
2026-05-07 23:42 49.92005 -95.16620 32219 ft 501 kts 87°
2026-05-07 23:42 49.91905 -95.11221 32628 ft 501 kts 87°
2026-05-07 23:42 49.91804 -95.05821 33019 ft 501 kts 87°
2026-05-07 23:43 49.91700 -95.00409 33414 ft 500 kts 87°
2026-05-07 23:43 49.91491 -94.95005 33821 ft 503 kts 94°
2026-05-07 23:43 49.90767 -94.89679 34152 ft 508 kts 104°
2026-05-07 23:43 49.89550 -94.84514 34413 ft 511 kts 110°
2026-05-07 23:44 49.88103 -94.79473 34685 ft 512 kts 112°
2026-05-07 23:44 49.86592 -94.74456 34834 ft 513 kts 112°
2026-05-07 23:44 49.83670 -94.64462 34851 ft 513 kts 111°
2026-05-07 23:45 49.80856 -94.54307 34838 ft 513 kts 110°
2026-05-07 23:45 49.78082 -94.44124 34840 ft 512 kts 110°
2026-05-07 23:46 49.75306 -94.33974 34833 ft 512 kts 110°
2026-05-07 23:46 49.72515 -94.23842 34832 ft 512 kts 110°
2026-05-07 23:47 49.69711 -94.13718 34852 ft 513 kts 110°
2026-05-07 23:47 49.66895 -94.03595 34859 ft 512 kts 110°
2026-05-07 23:48 49.64089 -93.93550 34880 ft 513 kts 110°
2026-05-07 23:48 49.61259 -93.83462 34888 ft 513 kts 111°
2026-05-07 23:49 49.58411 -93.73373 34887 ft 513 kts 111°
2026-05-07 23:49 49.55518 -93.63320 34890 ft 513 kts 111°
2026-05-07 23:50 49.52636 -93.53272 34894 ft 513 kts 111°
2026-05-07 23:50 49.49764 -93.43219 34892 ft 513 kts 111°
2026-05-07 23:51 49.46889 -93.33176 34894 ft 513 kts 111°
2026-05-07 23:51 49.44017 -93.23190 34911 ft 513 kts 111°
2026-05-07 23:52 49.41119 -93.13158 34894 ft 513 kts 111°
2026-05-07 23:52 49.38212 -93.03141 34906 ft 513 kts 111°
2026-05-07 23:53 49.35301 -92.93150 34911 ft 513 kts 111°
2026-05-07 23:53 49.32378 -92.83159 34912 ft 513 kts 111°
2026-05-07 23:54 49.29442 -92.73165 34911 ft 513 kts 111°
2026-05-07 23:54 49.26500 -92.63192 34916 ft 514 kts 112°
2026-05-07 23:55 49.23550 -92.53307 34908 ft 514 kts 112°
2026-05-07 23:55 49.20553 -92.43383 34908 ft 514 kts 112°
2026-05-07 23:56 49.17567 -92.33440 34908 ft 514 kts 112°
2026-05-07 23:56 49.14586 -92.23501 34906 ft 514 kts 112°
2026-05-07 23:57 49.11617 -92.13633 34910 ft 514 kts 112°
2026-05-07 23:57 49.08621 -92.03719 34906 ft 514 kts 112°
2026-05-07 23:58 49.05617 -91.93822 34896 ft 514 kts 112°
2026-05-07 23:58 49.02600 -91.83923 34900 ft 514 kts 112°
2026-05-07 23:59 48.99576 -91.74041 34919 ft 515 kts 112°
2026-05-07 23:59 48.96550 -91.64190 34901 ft 515 kts 112°
2026-05-08 00:00 48.93525 -91.54384 34899 ft 515 kts 113°
2026-05-08 00:00 48.90474 -91.44533 34900 ft 515 kts 113°
2026-05-08 00:01 48.87381 -91.34715 34895 ft 515 kts 113°
2026-05-08 00:01 48.84280 -91.24895 34890 ft 515 kts 113°
2026-05-08 00:02 48.81198 -91.15086 34890 ft 515 kts 113°
2026-05-08 00:02 48.78117 -91.05288 34900 ft 515 kts 113°
2026-05-08 00:03 48.75021 -90.95481 34887 ft 515 kts 113°
2026-05-08 00:03 48.71942 -90.85769 34896 ft 515 kts 114°
2026-05-08 00:04 48.68832 -90.76001 34882 ft 514 kts 114°
2026-05-08 00:04 48.65717 -90.66254 34886 ft 514 kts 114°
2026-05-08 00:05 48.62595 -90.56522 34875 ft 514 kts 114°
2026-05-08 00:05 48.59462 -90.46797 34879 ft 514 kts 114°
2026-05-08 00:06 48.56345 -90.37156 34887 ft 513 kts 114°
2026-05-08 00:06 48.53195 -90.27481 34880 ft 513 kts 115°
2026-05-08 00:07 48.50002 -90.17824 34876 ft 513 kts 115°
2026-05-08 00:07 48.46830 -90.08196 34873 ft 513 kts 114°
2026-05-08 00:08 48.43653 -89.98527 34884 ft 513 kts 115°
2026-05-08 00:08 48.40484 -89.88903 34872 ft 513 kts 115°
2026-05-08 00:09 48.37322 -89.79342 34866 ft 513 kts 115°
2026-05-08 00:09 48.34133 -89.69738 34861 ft 513 kts 115°
2026-05-08 00:10 48.30931 -89.60132 34859 ft 513 kts 115°
2026-05-08 00:10 48.27722 -89.50541 34856 ft 513 kts 115°
2026-05-08 00:11 48.24588 -89.40909 34850 ft 513 kts 112°
2026-05-08 00:11 48.21740 -89.31105 34834 ft 512 kts 111°
2026-05-08 00:12 48.18986 -89.21307 34847 ft 513 kts 111°
2026-05-08 00:12 48.16198 -89.11476 34865 ft 513 kts 111°
2026-05-08 00:13 48.13387 -89.01671 34859 ft 512 kts 112°
2026-05-08 00:13 48.10564 -88.91882 34862 ft 512 kts 112°
2026-05-08 00:14 48.07729 -88.82091 34861 ft 512 kts 112°
2026-05-08 00:14 48.04898 -88.72347 34885 ft 512 kts 112°
2026-05-08 00:15 48.02055 -88.62602 34869 ft 511 kts 112°
2026-05-08 00:15 47.99216 -88.52909 34863 ft 512 kts 112°
2026-05-08 00:16 47.96350 -88.43165 34870 ft 512 kts 112°
2026-05-08 00:16 47.93476 -88.33432 34871 ft 512 kts 112°
2026-05-08 00:17 47.90568 -88.23738 34875 ft 512 kts 113°
2026-05-08 00:17 47.87659 -88.14087 34878 ft 511 kts 113°
2026-05-08 00:18 47.84828 -88.04473 34878 ft 511 kts 112°
2026-05-08 00:18 47.81987 -87.94749 34884 ft 511 kts 113°
2026-05-08 00:19 47.79101 -87.85061 34889 ft 511 kts 113°
2026-05-08 00:19 47.76196 -87.75422 34885 ft 511 kts 114°
2026-05-08 00:20 47.73272 -87.65768 34884 ft 512 kts 114°
2026-05-08 00:20 47.70366 -87.56203 34886 ft 512 kts 114°
2026-05-08 00:21 47.67431 -87.46579 34905 ft 511 kts 114°
2026-05-08 00:21 47.64987 -87.38588 34893 ft 511 kts 114°
2026-05-08 00:22 47.62047 -87.29017 34891 ft 510 kts 114°
2026-05-08 00:22 47.59094 -87.19437 34892 ft 510 kts 114°
2026-05-08 00:23 47.56104 -87.09903 34897 ft 510 kts 115°
2026-05-08 00:23 47.53108 -87.00361 34897 ft 511 kts 115°
2026-05-08 00:24 47.50138 -86.90861 34900 ft 511 kts 115°
2026-05-08 00:24 47.47154 -86.81321 34903 ft 511 kts 115°
2026-05-08 00:25 47.44155 -86.71771 34903 ft 511 kts 115°
2026-05-08 00:25 47.41153 -86.62251 34908 ft 511 kts 115°
2026-05-08 00:26 47.38141 -86.52738 34907 ft 511 kts 115°
2026-05-08 00:26 47.35127 -86.43251 34905 ft 511 kts 115°
2026-05-08 00:27 47.32128 -86.33849 34899 ft 511 kts 115°
2026-05-08 00:27 47.29100 -86.24390 34912 ft 512 kts 116°
2026-05-08 00:28 47.26049 -86.14895 34909 ft 512 kts 116°
2026-05-08 00:28 47.22989 -86.05431 34908 ft 512 kts 116°
2026-05-08 00:29 47.19889 -85.95995 34911 ft 512 kts 116°
2026-05-08 00:29 47.16815 -85.86606 34920 ft 512 kts 116°
2026-05-08 00:30 47.13729 -85.77152 34914 ft 512 kts 116°
2026-05-08 00:30 47.10643 -85.67720 34914 ft 512 kts 116°
2026-05-08 00:31 47.07567 -85.58353 34910 ft 513 kts 116°
2026-05-08 00:31 47.04458 -85.48926 34911 ft 513 kts 116°
2026-05-08 00:32 47.01342 -85.39511 34908 ft 513 kts 116°
2026-05-08 00:32 46.98243 -85.30179 34908 ft 513 kts 116°
2026-05-08 00:33 46.95112 -85.20788 34911 ft 513 kts 117°
2026-05-08 00:33 46.91973 -85.11407 34911 ft 513 kts 117°
2026-05-08 00:34 46.88828 -85.02039 34912 ft 513 kts 117°
2026-05-08 00:34 46.85657 -84.92695 34905 ft 513 kts 117°
2026-05-08 00:35 46.82479 -84.83420 34913 ft 514 kts 117°
2026-05-08 00:35 46.79275 -84.74025 34916 ft 514 kts 117°
2026-05-08 00:36 46.76100 -84.64704 34915 ft 513 kts 117°
2026-05-08 00:36 46.72932 -84.55433 34909 ft 513 kts 117°
2026-05-08 00:37 46.69743 -84.46135 34909 ft 513 kts 117°
2026-05-08 00:38 46.64944 -84.32209 34912 ft 513 kts 118°
2026-05-08 00:38 46.61731 -84.22927 34909 ft 512 kts 118°
2026-05-08 00:39 46.58537 -84.13734 34907 ft 512 kts 118°
2026-05-08 00:39 46.55311 -84.04479 34910 ft 512 kts 118°
2026-05-08 00:40 46.52083 -83.95252 34910 ft 512 kts 118°
2026-05-08 00:40 46.48833 -83.86032 34911 ft 512 kts 118°
2026-05-08 00:41 46.45573 -83.76901 34915 ft 512 kts 118°
2026-05-08 00:41 46.42199 -83.67814 34913 ft 511 kts 123°
2026-05-08 00:42 46.38218 -83.59280 34903 ft 510 kts 127°
2026-05-08 00:42 46.34054 -83.50957 34911 ft 510 kts 128°
2026-05-08 00:43 46.29925 -83.42635 34909 ft 510 kts 127°
2026-05-08 00:43 46.25805 -83.34246 34911 ft 510 kts 127°
2026-05-08 00:44 46.21699 -83.25883 34914 ft 510 kts 127°
2026-05-08 00:44 46.17592 -83.17547 34913 ft 510 kts 127°
2026-05-08 00:45 46.13487 -83.09243 34913 ft 511 kts 127°
2026-05-08 00:45 46.09343 -83.00924 34916 ft 511 kts 128°
2026-05-08 00:46 46.05214 -82.92701 34916 ft 511 kts 128°
2026-05-08 00:46 46.01046 -82.84392 34918 ft 511 kts 128°
2026-05-08 00:47 45.96885 -82.76103 34911 ft 510 kts 128°
2026-05-08 00:47 45.92742 -82.67870 34892 ft 510 kts 128°
2026-05-08 00:48 45.88565 -82.59597 34906 ft 512 kts 128°
2026-05-08 00:48 45.84376 -82.51326 34904 ft 512 kts 128°
2026-05-08 00:49 45.80207 -82.43142 34930 ft 511 kts 128°
2026-05-08 00:49 45.76009 -82.34901 34929 ft 511 kts 128°
2026-05-08 00:50 45.71817 -82.26671 34931 ft 511 kts 128°
2026-05-08 00:50 45.67611 -82.18434 34926 ft 513 kts 128°
2026-05-08 00:51 45.63400 -82.10211 34934 ft 512 kts 129°
2026-05-08 00:51 45.58687 -82.02649 34932 ft 508 kts 139°
2026-05-08 00:52 45.53517 -81.95805 34933 ft 507 kts 141°
2026-05-08 00:52 45.48351 -81.89061 34922 ft 507 kts 140°
2026-05-08 00:53 45.43171 -81.82181 34937 ft 509 kts 140°
2026-05-08 00:53 45.38013 -81.75280 34934 ft 509 kts 140°
2026-05-08 00:54 45.32841 -81.68373 34939 ft 509 kts 140°
2026-05-08 00:54 45.27675 -81.61500 34935 ft 509 kts 140°
2026-05-08 00:55 45.22470 -81.54640 34939 ft 511 kts 140°
2026-05-08 00:55 45.17287 -81.47827 34942 ft 510 kts 140°
2026-05-08 00:56 45.12091 -81.40998 34945 ft 510 kts 140°
2026-05-08 00:56 45.06883 -81.34164 34941 ft 510 kts 140°
2026-05-08 00:57 45.01684 -81.27360 34942 ft 512 kts 141°
2026-05-08 00:57 44.96440 -81.20517 34939 ft 512 kts 141°
2026-05-08 00:58 44.91220 -81.13719 34801 ft 505 kts 141°
2026-05-08 00:58 44.88646 -81.10371 34482 ft 501 kts 141°
2026-05-08 00:58 44.86093 -81.07058 33913 ft 500 kts 141°
2026-05-08 00:58 44.83537 -81.03747 33150 ft 497 kts 141°
2026-05-08 00:59 44.80995 -81.00458 32487 ft 496 kts 141°
2026-05-08 00:59 44.78449 -80.97171 31842 ft 496 kts 140°
2026-05-08 00:59 44.75921 -80.93910 31210 ft 495 kts 140°
2026-05-08 00:59 44.73389 -80.90646 30584 ft 493 kts 140°
2026-05-08 01:00 44.70895 -80.87436 29962 ft 492 kts 140°
2026-05-08 01:00 44.68368 -80.84186 29227 ft 491 kts 139°
2026-05-08 01:00 44.65840 -80.80945 28570 ft 491 kts 140°
2026-05-08 01:00 44.63306 -80.77720 27903 ft 492 kts 140°
2026-05-08 01:01 44.60767 -80.74494 27239 ft 492 kts 140°
2026-05-08 01:01 44.58229 -80.71268 26573 ft 493 kts 139°
2026-05-08 01:01 44.55685 -80.68029 25861 ft 493 kts 139°
2026-05-08 01:01 44.53149 -80.64798 25156 ft 490 kts 139°
2026-05-08 01:02 44.50642 -80.61603 24458 ft 484 kts 139°
2026-05-08 01:02 44.48196 -80.58486 23780 ft 478 kts 139°
2026-05-08 01:02 44.45744 -80.55366 23022 ft 472 kts 139°
2026-05-08 01:02 44.43329 -80.52296 22294 ft 467 kts 139°
2026-05-08 01:03 44.40937 -80.49259 21605 ft 462 kts 139°
2026-05-08 01:03 44.38565 -80.46252 20936 ft 458 kts 139°
2026-05-08 01:03 44.36213 -80.43274 20282 ft 454 kts 139°
2026-05-08 01:03 44.33881 -80.40325 19637 ft 450 kts 139°
2026-05-08 01:04 44.31570 -80.37406 18995 ft 446 kts 139°
2026-05-08 01:04 44.29276 -80.34511 18360 ft 442 kts 140°
2026-05-08 01:04 44.27002 -80.31644 17662 ft 438 kts 140°
2026-05-08 01:04 44.24747 -80.28805 17045 ft 434 kts 140°
2026-05-08 01:05 44.22533 -80.26019 16437 ft 421 kts 140°
2026-05-08 01:05 44.20390 -80.23323 15828 ft 409 kts 140°
2026-05-08 01:05 44.18331 -80.20737 15258 ft 400 kts 140°
2026-05-08 01:05 44.16275 -80.18165 14690 ft 395 kts 140°
2026-05-08 01:06 44.14243 -80.15622 14147 ft 389 kts 140°
2026-05-08 01:06 44.12265 -80.13141 13751 ft 376 kts 140°
2026-05-08 01:06 44.10365 -80.10753 13563 ft 358 kts 141°
2026-05-08 01:06 44.08569 -80.08493 13457 ft 336 kts 141°
2026-05-08 01:07 44.06891 -80.06381 13347 ft 317 kts 141°
2026-05-08 01:07 44.05265 -80.04342 13240 ft 314 kts 141°
2026-05-08 01:07 44.04169 -80.02971 13163 ft 313 kts 141°
2026-05-08 01:07 44.02559 -80.01009 13032 ft 311 kts 145°
2026-05-08 01:08 44.00814 -79.99253 12967 ft 309 kts 149°
2026-05-08 01:08 43.99016 -79.97614 12900 ft 309 kts 151°
2026-05-08 01:08 43.97196 -79.95997 12701 ft 310 kts 151°
2026-05-08 01:08 43.95384 -79.94393 12262 ft 307 kts 151°
2026-05-08 01:09 43.93625 -79.92832 11837 ft 301 kts 151°
2026-05-08 01:09 43.91871 -79.91274 11413 ft 297 kts 151°
2026-05-08 01:09 43.90138 -79.89734 11003 ft 295 kts 151°
2026-05-08 01:09 43.88413 -79.88201 10580 ft 293 kts 151°
2026-05-08 01:10 43.86705 -79.86684 10126 ft 291 kts 151°
2026-05-08 01:10 43.85013 -79.85152 9658 ft 290 kts 148°
2026-05-08 01:10 43.83456 -79.83377 9202 ft 286 kts 141°
2026-05-08 01:10 43.82045 -79.81556 8809 ft 269 kts 140°
2026-05-08 01:11 43.80714 -79.79790 8407 ft 261 kts 140°
2026-05-08 01:11 43.79416 -79.78064 8076 ft 255 kts 140°
2026-05-08 01:11 43.78129 -79.76357 7970 ft 257 kts 140°
2026-05-08 01:11 43.76963 -79.74523 7538 ft 259 kts 124°
2026-05-08 01:12 43.76399 -79.72199 7048 ft 255 kts 92°
2026-05-08 01:12 43.76774 -79.69886 6598 ft 243 kts 59°
2026-05-08 01:12 43.77779 -79.68040 6160 ft 239 kts 45°
2026-05-08 01:12 43.78905 -79.66379 6055 ft 237 kts 44°
2026-05-08 01:13 43.80049 -79.64727 5808 ft 236 kts 44°
2026-05-08 01:13 43.81184 -79.63087 5519 ft 235 kts 44°
2026-05-08 01:13 43.82311 -79.61456 5210 ft 233 kts 44°
2026-05-08 01:13 43.83429 -79.59835 4900 ft 232 kts 44°
2026-05-08 01:14 43.84525 -79.58243 4592 ft 230 kts 44°
2026-05-08 01:14 43.85622 -79.56648 4266 ft 228 kts 45°
2026-05-08 01:14 43.86711 -79.55063 4029 ft 226 kts 45°
2026-05-08 01:14 43.87628 -79.53333 3710 ft 226 kts 67°
2026-05-08 01:15 43.87808 -79.51199 3398 ft 225 kts 100°
2026-05-08 01:15 43.87137 -79.49281 3109 ft 222 kts 133°
2026-05-08 01:15 43.85944 -79.47953 3011 ft 221 kts 157°
2026-05-08 01:15 43.84458 -79.47531 3026 ft 219 kts 179°
2026-05-08 01:16 43.82963 -79.47774 3003 ft 216 kts 198°
2026-05-08 01:16 43.81561 -79.48373 2995 ft 208 kts 200°
2026-05-08 01:16 43.80183 -79.48982 3006 ft 207 kts 199°
2026-05-08 01:16 43.78917 -79.49871 2996 ft 203 kts 223°
2026-05-08 01:17 43.77917 -79.51191 3004 ft 191 kts 226°
2026-05-08 01:17 43.77005 -79.52462 2853 ft 184 kts 228°
2026-05-08 01:17 43.76122 -79.53737 2587 ft 182 kts 229°
2026-05-08 01:17 43.75245 -79.55010 2344 ft 184 kts 227°
2026-05-08 01:18 43.74366 -79.56285 2076 ft 182 kts 228°
2026-05-08 01:18 43.73508 -79.57533 1809 ft 181 kts 229°
2026-05-08 01:18 43.72676 -79.58742 1546 ft 164 kts 229°
2026-05-08 01:18 43.71899 -79.59874 1345 ft 162 kts 227°
2026-05-08 01:19 43.71122 -79.61000 1096 ft 162 kts 227°
2026-05-08 01:19 43.70349 -79.62139 878 ft 163 kts 227°
2026-05-08 01:19 43.69570 -79.63276 659 ft 164 kts 227°
2026-05-08 01:19 43.68811 -79.64366 579 ft 142 kts 228°
2026-05-08 01:20 43.68276 -79.65161 579 ft 84 kts 226°
2026-05-08 01:20 43.67995 -79.65568 575 ft 44 kts 226°
2026-05-08 01:20 43.67881 -79.65879 575 ft 28 kts 257°
2026-05-08 01:20 43.67916 -79.65984 576 ft 8 kts
2026-05-08 01:21 43.67959 -79.65944 573 ft 7 kts 43°
2026-05-08 01:21 43.67990 -79.65900 577 ft 6 kts 46°
2026-05-08 01:21 43.68034 -79.65839 573 ft 12 kts 46°
2026-05-08 01:21 43.68092 -79.65767 576 ft 9 kts 24°
2026-05-08 01:22 43.68142 -79.65785 572 ft 9 kts 331°
2026-05-08 01:22 43.68195 -79.65835 575 ft 8 kts 326°
2026-05-08 01:22 43.68237 -79.65842 574 ft 4 kts 22°
2026-05-08 01:22 43.68276 -79.65790 577 ft 11 kts 45°
2026-05-08 01:23 43.68321 -79.65726 573 ft 5 kts 46°
2026-05-08 01:23 43.68331 -79.65693 575 ft 2 kts 83°
2026-05-08 01:23 43.68323 -79.65676 573 ft 2 kts 136°
2026-05-08 01:23 43.68303 -79.65655 572 ft 4 kts 137°
2026-05-08 01:24 43.68295 -79.65646 569 ft 0 kts 137°